Location: Eckville
(52.3611°N, 114.3680°W)
Time: 23:05:44
(UTC+00:00)

Envisat - Visible Passes

Search period start: 29 May 2023 00:00
Search period end: 08 June 2023 00:00
Orbit: 763 x 765 km, 98.2° (Epoch: 29 May)

Date Brightness Start Highest point End Pass type
(mag) Time Alt. Az. Time Alt. Az. Time Alt. Az.
29 May 5.1 10:36:46 10° NE 10:40:55 25° E 10:45:03 10° SE visible
30 May 5.7 10:01:06 10° ENE 10:03:16 13° E 10:05:26 10° ESE visible
01 Jun 5.4 10:24:38 10° NE 10:28:21 20° E 10:32:03 10° SE visible
04 Jun 5.5 10:12:39 10° NE 10:15:46 16° E 10:18:52 10° SE visible
07 Jun 5.7 10:00:54 10° ENE 10:03:08 13° E 10:05:23 10° ESE visible
